Weather History for McKinney, TX

Change the Weather History Date:

Saturday, December 1, 2012

  Actual Average (KADS) Record (KADS)
Temperature  
Mean Temperature 72 °F -  
Max Temperature 80 °F 59 °F 78 °F (2012)
Min Temperature 64 °F 44 °F 24 °F (2006)
Cooling Degree Days 7    
Growing Degree Days 22 (Base 50)    
Moisture  
Dew Point 61 °F    
Average Humidity 73    
Maximum Humidity 90    
Minimum Humidity 48    
Precipitation  
Precipitation 0.00 in - - ()
Sea Level Pressure  
Sea Level Pressure 30.01 in    
Wind  
Wind Speed 16 mph (South)    
Max Wind Speed 26 mph    
Max Gust Speed 32 mph    
Visibility 10 miles    
Events      
Averages and records for this station are not official NWS values.
T = Trace of Precipitation, MM = Missing Value Source: NWS Daily Summary

Daily Weather History Graph

Daily Weather History Graph

Search for Another Location

Airport:

Trip Planner

Search our weather history database for the weather conditions in past years. The results will help you decide how hot, cold, wet, or windy it might be!

Date:

Astronomy

Dec. 01, 2012 Rise Set
Actual Time 7:12 AM CST 5:19 PM CST
Civil Twilight 6:45 AM CST 5:46 PM CST
Nautical Twilight 6:14 AM CST 6:16 PM CST
Astronomical Twilight 5:44 AM CST 6:46 PM CST
Moon 8:07 PM CST (12/1) 9:27 AM CST (12/1)
Length of Visible Light 11h 00m
Length of Day
10h 06m
Waning Gibbous, 91% of the Moon is Illuminated
Dec 1
Waning Gibbous
Dec 6
Last Quarter
Dec 13
New
Dec 19
First Quarter
Dec 28
Full

Hourly Weather History & Observations

Time (CST) Temp. Heat Index Dew Point Humidity Pressure Visibility Wind Dir Wind Speed Gust Speed Precip Events Conditions
12:40 AM 64.4 °F - 60.8 °F 88% 30.05 in 10.0 mi South 15.0 mph - N/A   Overcast
12:53 AM 64.0 °F - 60.1 °F 87% 30.06 in 10.0 mi South 16.1 mph - N/A   Overcast
2:53 AM 66.0 °F - 62.1 °F 87% 30.04 in 9.0 mi South 17.3 mph 24.2 mph N/A   Overcast
3:31 AM 66.2 °F - 62.6 °F 88% 30.04 in 10.0 mi South 13.8 mph - N/A   Overcast
3:53 AM 66.0 °F - 62.1 °F 87% 30.04 in 10.0 mi South 15.0 mph - N/A   Overcast
4:53 AM 66.9 °F - 63.0 °F 87% 30.03 in 10.0 mi South 15.0 mph - N/A   Overcast
5:53 AM 66.9 °F - 62.1 °F 84% 30.04 in 10.0 mi South 16.1 mph - N/A   Overcast
6:53 AM 64.9 °F - 62.1 °F 90% 30.04 in 10.0 mi South 13.8 mph - N/A   Mostly Cloudy
7:53 AM 66.9 °F - 63.0 °F 87% 30.05 in 10.0 mi South 13.8 mph 21.9 mph N/A   Overcast
8:15 AM 66.2 °F - 62.6 °F 88% 30.05 in 10.0 mi South 16.1 mph - N/A   Overcast
8:39 AM 68.0 °F - 62.6 °F 83% 30.06 in 10.0 mi South 16.1 mph 23.0 mph N/A   Overcast
8:53 AM 68.0 °F - 63.0 °F 84% 30.06 in 10.0 mi South 15.0 mph - N/A   Overcast
8:58 AM 68.0 °F - 62.6 °F 83% 30.06 in 10.0 mi South 19.6 mph 25.3 mph N/A   Overcast
9:53 AM 71.1 °F - 63.0 °F 75% 30.06 in 10.0 mi South 19.6 mph 25.3 mph N/A   Overcast
10:53 AM 73.0 °F - 63.0 °F 71% 30.04 in 10.0 mi SSW 24.2 mph 28.8 mph N/A   Overcast
11:53 AM 75.9 °F - 63.0 °F 64% 30.01 in 10.0 mi South 26.5 mph 29.9 mph N/A   Mostly Cloudy
12:14 PM 75.2 °F - 60.8 °F 61% 30.00 in 10.0 mi South 21.9 mph 31.1 mph N/A   Mostly Cloudy
12:53 PM 75.9 °F - 61.0 °F 60% 29.98 in 10.0 mi SSW 20.7 mph 27.6 mph N/A   Mostly Cloudy
1:53 PM 78.1 °F - 60.1 °F 54% 29.95 in 10.0 mi South 18.4 mph 28.8 mph N/A   Partly Cloudy
2:53 PM 80.1 °F 80.7 °F 59.0 °F 48% 29.93 in 10.0 mi SSW 23.0 mph 32.2 mph N/A   Partly Cloudy
3:53 PM 80.1 °F 80.7 °F 59.0 °F 48% 29.93 in 10.0 mi SSW 16.1 mph 27.6 mph N/A   Clear
5:53 PM 75.9 °F - 57.9 °F 54% 29.94 in 10.0 mi South 13.8 mph - N/A   Clear
6:53 PM 75.0 °F - 57.9 °F 55% 29.95 in 10.0 mi South 15.0 mph - N/A   Clear
7:53 PM 75.0 °F - 57.9 °F 55% 29.96 in 10.0 mi South 13.8 mph - N/A   Clear
8:53 PM 73.0 °F - 57.9 °F 59% 29.96 in 10.0 mi South 12.7 mph - N/A   Clear
9:53 PM 70.0 °F - 57.9 °F 65% 29.98 in 10.0 mi South 11.5 mph - N/A   Clear
10:53 PM 66.9 °F - 57.9 °F 73% 30.01 in 10.0 mi SSE 6.9 mph - N/A   Clear
11:53 PM 69.1 °F - 60.1 °F 73% 30.01 in 10.0 mi South 15.0 mph - N/A   Clear